VIV3177 MMGL-MMHO

Flight info

Callsign VIV3177
Flight time 1h 40m
Altitude 36000
Route SEDEM1B SEDEM UJ3 MZT UJ7 HMO
Aircraft A320/M-SDE3FGHIRWY/LB1

Departure

Time 2026-04-22 01:30
Airport Guadalajara International Airport (MMGL)

Arrival

Time 2026-04-22 03:10
Airport General Ignacio L. Pesqueira International Airport (MMHO)
Time Latitude Longitude Altitude Speed Heading
2026-04-22 00:50 20.52372 -103.29905 5030 ft 0 kts 20°
2026-04-22 01:14 20.52362 -103.29909 5030 ft 3 kts 27°
2026-04-22 01:14 20.52346 -103.29920 5030 ft 3 kts 47°
2026-04-22 01:14 20.52334 -103.29937 5030 ft 3 kts 68°
2026-04-22 01:15 20.52329 -103.29957 5030 ft 3 kts 94°
2026-04-22 01:15 20.52330 -103.29968 5030 ft 0 kts 109°
2026-04-22 01:21 20.52330 -103.29966 5030 ft 1 kts 109°
2026-04-22 01:21 20.52328 -103.29960 5030 ft 2 kts 109°
2026-04-22 01:22 20.52320 -103.29935 5030 ft 5 kts 109°
2026-04-22 01:22 20.52304 -103.29892 5030 ft 7 kts 115°
2026-04-22 01:22 20.52276 -103.29835 5030 ft 10 kts 121°
2026-04-22 01:22 20.52252 -103.29790 5030 ft 4 kts 120°
2026-04-22 01:23 20.52221 -103.29761 5030 ft 10 kts 169°
2026-04-22 01:23 20.52116 -103.29794 5030 ft 20 kts 199°
2026-04-22 01:23 20.52029 -103.29817 5030 ft 13 kts 165°
2026-04-22 01:23 20.51964 -103.29746 5030 ft 15 kts 126°
2026-04-22 01:24 20.51945 -103.29719 5030 ft 0 kts 126°
2026-04-22 01:25 20.51945 -103.29718 5030 ft 1 kts 126°
2026-04-22 01:25 20.51936 -103.29705 5030 ft 4 kts 127°
2026-04-22 01:26 20.51898 -103.29652 5030 ft 18 kts 126°
2026-04-22 01:26 20.51811 -103.29524 5030 ft 23 kts 126°
2026-04-22 01:26 20.51711 -103.29381 5030 ft 25 kts 126°
2026-04-22 01:26 20.51628 -103.29258 5030 ft 12 kts 126°
2026-04-22 01:27 20.51557 -103.29211 5030 ft 14 kts 186°
2026-04-22 01:27 20.51534 -103.29218 5030 ft 0 kts 205°
2026-04-22 01:27 20.51520 -103.29225 5030 ft 0 kts 205°
2026-04-22 01:28 20.51519 -103.29226 5030 ft 1 kts 205°
2026-04-22 01:28 20.51496 -103.29237 5030 ft 7 kts 205°
2026-04-22 01:28 20.51432 -103.29268 5030 ft 9 kts 204°
2026-04-22 01:29 20.51429 -103.29317 5030 ft 9 kts 297°
2026-04-22 01:29 20.51515 -103.29520 5030 ft 65 kts 294°
2026-04-22 01:29 20.51800 -103.30202 5031 ft 133 kts 295°
2026-04-22 01:29 20.52245 -103.31274 5072 ft 180 kts 294°
2026-04-22 01:30 20.52787 -103.32518 5674 ft 184 kts 296°
2026-04-22 01:30 20.53394 -103.33711 6387 ft 186 kts 300°
2026-04-22 01:30 20.54087 -103.34885 7114 ft 188 kts 304°
2026-04-22 01:30 20.54832 -103.36058 7812 ft 193 kts 298°
2026-04-22 01:31 20.55216 -103.37480 8330 ft 206 kts 281°
2026-04-22 01:31 20.55529 -103.38995 8690 ft 219 kts 286°
2026-04-22 01:31 20.56077 -103.40562 9018 ft 233 kts 295°
2026-04-22 01:31 20.56803 -103.42170 9304 ft 251 kts 297°
2026-04-22 01:32 20.57575 -103.43893 9808 ft 261 kts 295°
2026-04-22 01:32 20.58306 -103.45647 10672 ft 256 kts 294°
2026-04-22 01:32 20.59017 -103.47361 11565 ft 251 kts 295°
2026-04-22 01:32 20.60106 -103.48833 12080 ft 266 kts 319°
2026-04-22 01:33 20.61828 -103.49816 12350 ft 289 kts 332°
2026-04-22 01:33 20.63581 -103.50947 12647 ft 301 kts 320°
2026-04-22 01:33 20.65213 -103.52421 12961 ft 314 kts 315°
2026-04-22 01:33 20.66850 -103.54050 13246 ft 328 kts 314°
2026-04-22 01:34 20.68548 -103.55746 13617 ft 339 kts 315°
2026-04-22 01:34 20.70309 -103.57443 14177 ft 343 kts 316°
2026-04-22 01:34 20.72119 -103.59127 14752 ft 346 kts 316°
2026-04-22 01:34 20.73964 -103.60818 15318 ft 349 kts 317°
2026-04-22 01:35 20.75812 -103.62520 15869 ft 352 kts 316°
2026-04-22 01:35 20.77666 -103.64244 16411 ft 355 kts 316°
2026-04-22 01:35 20.79504 -103.65967 16937 ft 358 kts 316°
2026-04-22 01:35 20.81386 -103.67732 17462 ft 361 kts 316°
2026-04-22 01:36 20.83282 -103.69506 17973 ft 363 kts 316°
2026-04-22 01:36 20.85188 -103.71286 18471 ft 366 kts 316°
2026-04-22 01:36 20.87121 -103.73092 18963 ft 369 kts 316°
2026-04-22 01:36 20.89055 -103.74900 19444 ft 372 kts 316°
2026-04-22 01:37 20.91012 -103.76730 19926 ft 374 kts 316°
2026-04-22 01:37 20.92977 -103.78569 20388 ft 377 kts 316°
2026-04-22 01:37 20.94963 -103.80429 20838 ft 380 kts 316°
2026-04-22 01:37 20.96961 -103.82300 21281 ft 382 kts 316°
2026-04-22 01:38 20.98966 -103.84178 21712 ft 385 kts 316°
2026-04-22 01:38 21.00959 -103.86047 22126 ft 387 kts 316°
2026-04-22 01:38 21.02989 -103.87951 22533 ft 390 kts 316°
2026-04-22 01:38 21.05032 -103.89867 22929 ft 392 kts 316°
2026-04-22 01:39 21.07091 -103.91799 23317 ft 394 kts 316°
2026-04-22 01:39 21.09161 -103.93742 23696 ft 397 kts 316°
2026-04-22 01:39 21.11196 -103.95748 24064 ft 398 kts 313°
2026-04-22 01:39 21.13148 -103.97862 24423 ft 400 kts 311°
2026-04-22 01:40 21.15081 -104.00012 24774 ft 402 kts 311°
2026-04-22 01:40 21.17022 -104.02190 25115 ft 404 kts 311°
2026-04-22 01:40 21.18970 -104.04367 25444 ft 406 kts 311°
2026-04-22 01:40 21.20921 -104.06528 25767 ft 408 kts 311°
2026-04-22 01:41 21.22910 -104.08720 26083 ft 411 kts 312°
2026-04-22 01:41 21.24903 -104.10918 26394 ft 413 kts 311°
2026-04-22 01:41 21.26914 -104.13145 26703 ft 415 kts 311°
2026-04-22 01:41 21.28919 -104.15375 27004 ft 417 kts 311°
2026-04-22 01:42 21.30938 -104.17621 27301 ft 419 kts 311°
2026-04-22 01:42 21.32967 -104.19878 27594 ft 421 kts 311°
2026-04-22 01:42 21.34981 -104.22114 27877 ft 423 kts 311°
2026-04-22 01:42 21.37057 -104.24419 28161 ft 425 kts 311°
2026-04-22 01:43 21.39089 -104.26672 28434 ft 427 kts 311°
2026-04-22 01:43 21.41157 -104.28967 28707 ft 429 kts 311°
2026-04-22 01:43 21.43233 -104.31274 28973 ft 430 kts 311°
2026-04-22 01:43 21.45317 -104.33589 29237 ft 432 kts 311°
2026-04-22 01:44 21.47413 -104.35923 29494 ft 434 kts 311°
2026-04-22 01:44 21.49515 -104.38263 29748 ft 436 kts 311°
2026-04-22 01:44 21.51626 -104.40615 30001 ft 438 kts 311°
2026-04-22 01:44 21.53741 -104.42972 30252 ft 439 kts 311°
2026-04-22 01:45 21.55868 -104.45340 30501 ft 441 kts 311°
2026-04-22 01:45 21.58007 -104.47724 30739 ft 443 kts 311°
2026-04-22 01:45 21.60148 -104.50111 31011 ft 444 kts 311°
2026-04-22 01:45 21.62258 -104.52467 31325 ft 443 kts 311°
2026-04-22 01:46 21.64421 -104.54880 31642 ft 442 kts 311°
2026-04-22 01:46 21.66525 -104.57232 31942 ft 442 kts 311°
2026-04-22 01:46 21.68662 -104.59621 32247 ft 441 kts 311°
2026-04-22 01:46 21.70789 -104.61999 32544 ft 441 kts 311°
2026-04-22 01:47 21.72915 -104.64375 32835 ft 440 kts 311°
2026-04-22 01:47 21.75032 -104.66744 33118 ft 440 kts 311°
2026-04-22 01:47 21.77150 -104.69118 33395 ft 439 kts 311°
2026-04-22 01:47 21.79264 -104.71485 33666 ft 438 kts 311°
2026-04-22 01:48 21.81380 -104.73855 33933 ft 438 kts 311°
2026-04-22 01:48 21.83486 -104.76212 34188 ft 437 kts 311°
2026-04-22 01:48 21.85602 -104.78584 34443 ft 437 kts 311°
2026-04-22 01:48 21.87703 -104.80941 34693 ft 436 kts 311°
2026-04-22 01:49 21.89807 -104.83305 34929 ft 436 kts 311°
2026-04-22 01:49 21.91878 -104.85633 35160 ft 435 kts 311°
2026-04-22 01:49 21.93973 -104.87989 35378 ft 435 kts 311°
2026-04-22 01:49 21.96064 -104.90338 35595 ft 435 kts 311°
2026-04-22 01:50 21.98161 -104.92696 35801 ft 434 kts 311°
2026-04-22 01:50 22.00247 -104.95042 35991 ft 434 kts 311°
2026-04-22 01:50 22.04429 -104.99752 36008 ft 433 kts 311°
2026-04-22 01:51 22.07703 -105.03444 36007 ft 433 kts 311°
2026-04-22 01:51 22.11868 -105.08142 36007 ft 433 kts 311°
2026-04-22 01:52 22.16033 -105.12841 36007 ft 433 kts 311°
2026-04-22 01:52 22.20193 -105.17546 36007 ft 433 kts 311°
2026-04-22 01:53 22.24353 -105.22251 36007 ft 433 kts 311°
2026-04-22 01:53 22.28554 -105.27005 36014 ft 442 kts 311°
2026-04-22 01:54 22.32837 -105.31863 36011 ft 450 kts 311°
2026-04-22 01:54 22.37161 -105.36762 36007 ft 450 kts 311°
2026-04-22 01:55 22.41446 -105.41626 36007 ft 450 kts 311°
2026-04-22 01:55 22.45763 -105.46537 36007 ft 450 kts 311°
2026-04-22 01:56 22.50083 -105.51448 36007 ft 450 kts 311°
2026-04-22 01:56 22.54397 -105.56361 36007 ft 450 kts 311°
2026-04-22 01:57 22.58683 -105.61246 36007 ft 450 kts 311°
2026-04-22 01:57 22.62991 -105.66160 36007 ft 450 kts 311°
2026-04-22 01:58 22.67297 -105.71075 36007 ft 450 kts 311°
2026-04-22 01:58 22.71606 -105.76001 36007 ft 450 kts 311°
2026-04-22 01:59 22.75916 -105.80934 36007 ft 450 kts 311°
2026-04-22 01:59 22.80229 -105.85872 36007 ft 450 kts 311°
2026-04-22 02:00 22.84510 -105.90782 36007 ft 450 kts 311°
2026-04-22 02:00 22.88824 -105.95732 36007 ft 450 kts 311°
2026-04-22 02:01 22.93123 -106.00669 36007 ft 450 kts 311°
2026-04-22 02:01 22.97426 -106.05616 36007 ft 450 kts 311°
2026-04-22 02:02 23.01723 -106.10563 36007 ft 450 kts 311°
2026-04-22 02:02 23.05999 -106.15491 36007 ft 450 kts 311°
2026-04-22 02:03 23.10300 -106.20450 36007 ft 450 kts 311°
2026-04-22 02:03 23.14596 -106.25406 36007 ft 450 kts 311°
2026-04-22 02:04 23.19464 -106.29732 36008 ft 454 kts 323°
2026-04-22 02:04 23.22097 -106.31659 36008 ft 455 kts 324°
2026-04-22 02:05 23.27377 -106.35443 36007 ft 454 kts 323°
2026-04-22 02:05 23.32559 -106.39307 36007 ft 454 kts 322°
2026-04-22 02:06 23.37771 -106.43221 36007 ft 454 kts 323°
2026-04-22 02:06 23.43000 -106.47094 36007 ft 454 kts 323°
2026-04-22 02:07 23.48229 -106.50983 36007 ft 454 kts 323°
2026-04-22 02:07 23.53439 -106.54876 36007 ft 454 kts 323°
2026-04-22 02:08 23.58634 -106.58748 36007 ft 454 kts 323°
2026-04-22 02:08 23.63854 -106.62642 36007 ft 454 kts 323°
2026-04-22 02:09 23.69062 -106.66544 36007 ft 454 kts 323°
2026-04-22 02:09 23.74282 -106.70451 36007 ft 454 kts 323°
2026-04-22 02:10 23.79497 -106.74357 36007 ft 454 kts 323°
2026-04-22 02:10 23.84683 -106.78249 36007 ft 454 kts 323°
2026-04-22 02:11 23.89896 -106.82164 36007 ft 454 kts 323°
2026-04-22 02:11 23.95115 -106.86088 36007 ft 454 kts 323°
2026-04-22 02:12 24.00327 -106.90009 36007 ft 454 kts 323°
2026-04-22 02:12 24.05504 -106.93907 36007 ft 454 kts 323°
2026-04-22 02:13 24.10719 -106.97833 36007 ft 454 kts 323°
2026-04-22 02:13 24.15927 -107.01761 36007 ft 454 kts 323°
2026-04-22 02:14 24.21134 -107.05689 36007 ft 454 kts 323°
2026-04-22 02:14 24.26344 -107.09627 36007 ft 454 kts 323°
2026-04-22 02:15 24.31548 -107.13566 36007 ft 454 kts 323°
2026-04-22 02:15 24.36722 -107.17481 36007 ft 454 kts 323°
2026-04-22 02:16 24.41920 -107.21426 36007 ft 454 kts 323°
2026-04-22 02:16 24.47138 -107.25378 36007 ft 454 kts 323°
2026-04-22 02:17 24.52337 -107.29337 36007 ft 454 kts 322°
2026-04-22 02:17 24.57495 -107.33272 36007 ft 454 kts 323°
2026-04-22 02:18 24.62711 -107.37235 36007 ft 454 kts 323°
2026-04-22 02:18 24.67910 -107.41200 36007 ft 454 kts 322°
2026-04-22 02:19 24.73075 -107.45147 36007 ft 454 kts 322°
2026-04-22 02:19 24.78581 -107.48596 36001 ft 459 kts 336°
2026-04-22 02:20 24.84646 -107.50864 36009 ft 461 kts 340°
2026-04-22 02:20 24.90721 -107.53001 36008 ft 460 kts 339°
2026-04-22 02:21 24.96789 -107.55306 36007 ft 460 kts 338°
2026-04-22 02:21 25.02847 -107.57613 36007 ft 460 kts 338°
2026-04-22 02:22 25.08936 -107.59863 36007 ft 460 kts 338°
2026-04-22 02:22 25.15009 -107.62138 36007 ft 460 kts 338°
2026-04-22 02:23 25.21029 -107.64411 36007 ft 460 kts 338°
2026-04-22 02:23 25.27119 -107.66694 36007 ft 461 kts 338°
2026-04-22 02:24 25.33200 -107.68976 36007 ft 461 kts 338°
2026-04-22 02:24 25.39263 -107.71257 36007 ft 461 kts 338°
2026-04-22 02:25 25.45340 -107.73546 36007 ft 461 kts 338°
2026-04-22 02:25 25.51372 -107.75821 36007 ft 461 kts 338°
2026-04-22 02:26 25.57447 -107.78117 36007 ft 461 kts 338°
2026-04-22 02:26 25.63520 -107.80408 36007 ft 461 kts 338°
2026-04-22 02:27 25.69588 -107.82706 36007 ft 461 kts 338°
2026-04-22 02:27 25.75664 -107.85005 36007 ft 461 kts 338°
2026-04-22 02:28 25.81697 -107.87291 36007 ft 461 kts 338°
2026-04-22 02:28 25.87773 -107.89600 36007 ft 461 kts 338°
2026-04-22 02:29 25.93848 -107.91910 36007 ft 461 kts 338°
2026-04-22 02:29 25.99895 -107.94208 36007 ft 461 kts 338°
2026-04-22 02:30 26.05958 -107.96514 36007 ft 461 kts 338°
2026-04-22 02:30 26.12031 -107.98831 36007 ft 461 kts 338°
2026-04-22 02:31 26.18107 -108.01151 36007 ft 461 kts 338°
2026-04-22 02:31 26.24174 -108.03472 36007 ft 461 kts 338°
2026-04-22 02:32 26.30204 -108.05780 36007 ft 461 kts 338°
2026-04-22 02:32 26.36279 -108.08103 36007 ft 461 kts 338°
2026-04-22 02:33 26.42349 -108.10430 36007 ft 461 kts 338°
2026-04-22 02:33 26.48383 -108.12747 36007 ft 461 kts 338°
2026-04-22 02:34 26.54448 -108.15075 36007 ft 461 kts 338°
2026-04-22 02:34 26.60121 -108.18240 35999 ft 454 kts 320°
2026-04-22 02:35 26.64652 -108.23114 36011 ft 451 kts 311°
2026-04-22 02:35 26.68962 -108.28145 36008 ft 451 kts 312°
2026-04-22 02:36 26.73435 -108.33098 36007 ft 452 kts 313°
2026-04-22 02:36 26.77916 -108.38027 36007 ft 451 kts 313°
2026-04-22 02:37 26.82347 -108.43012 36007 ft 451 kts 313°
2026-04-22 02:37 26.86791 -108.47998 36007 ft 451 kts 313°
2026-04-22 02:38 26.91217 -108.52935 36007 ft 451 kts 313°
2026-04-22 02:38 26.95660 -108.57924 36007 ft 451 kts 313°
2026-04-22 02:39 27.00097 -108.62912 36007 ft 451 kts 313°
2026-04-22 02:39 27.03787 -108.67049 36007 ft 451 kts 313°
2026-04-22 02:40 27.08220 -108.72041 36007 ft 451 kts 313°
2026-04-22 02:40 27.12657 -108.77039 36007 ft 451 kts 313°
2026-04-22 02:41 27.17089 -108.82042 36007 ft 451 kts 313°
2026-04-22 02:41 27.21523 -108.87047 36007 ft 451 kts 313°
2026-04-22 02:42 27.25926 -108.92023 36007 ft 451 kts 313°
2026-04-22 02:42 27.30356 -108.97038 36007 ft 451 kts 313°
2026-04-22 02:43 27.34786 -109.02055 36007 ft 451 kts 313°
2026-04-22 02:43 27.39197 -109.07058 36007 ft 451 kts 313°
2026-04-22 02:44 27.43627 -109.12092 36007 ft 451 kts 313°
2026-04-22 02:44 27.48025 -109.17097 36007 ft 451 kts 313°
2026-04-22 02:45 27.52441 -109.22122 36007 ft 451 kts 312°
2026-04-22 02:45 27.56864 -109.27164 36007 ft 451 kts 312°
2026-04-22 02:46 27.61276 -109.32207 36007 ft 451 kts 312°
2026-04-22 02:46 27.65650 -109.37287 36007 ft 451 kts 312°
2026-04-22 02:47 27.70021 -109.42366 36007 ft 451 kts 312°
2026-04-22 02:47 27.74408 -109.47446 36007 ft 451 kts 312°
2026-04-22 02:48 27.78766 -109.52502 36007 ft 451 kts 312°
2026-04-22 02:48 27.83144 -109.57595 36007 ft 451 kts 312°
2026-04-22 02:49 27.87521 -109.62692 36007 ft 451 kts 312°
2026-04-22 02:49 27.91889 -109.67782 36007 ft 451 kts 312°
2026-04-22 02:50 27.96257 -109.72877 36007 ft 451 kts 312°
2026-04-22 02:50 28.00599 -109.77946 36007 ft 449 kts 312°
2026-04-22 02:51 28.04891 -109.82969 35576 ft 443 kts 312°
2026-04-22 02:51 28.07069 -109.85518 34838 ft 445 kts 312°
2026-04-22 02:51 28.09231 -109.88052 33893 ft 450 kts 312°
2026-04-22 02:51 28.11398 -109.90595 32956 ft 456 kts 312°
2026-04-22 02:52 28.13599 -109.93175 32184 ft 456 kts 312°
2026-04-22 02:52 28.15823 -109.95766 31303 ft 458 kts 313°
2026-04-22 02:52 28.18214 -109.98166 30153 ft 460 kts 318°
2026-04-22 02:52 28.20724 -110.00463 28913 ft 464 kts 319°
2026-04-22 02:53 28.23273 -110.02717 27656 ft 466 kts 320°
2026-04-22 02:53 28.25840 -110.04973 26331 ft 468 kts 320°
2026-04-22 02:53 28.28406 -110.07259 24882 ft 471 kts 319°
2026-04-22 02:53 28.30973 -110.09583 23468 ft 472 kts 319°
2026-04-22 02:54 28.33483 -110.11875 22410 ft 465 kts 319°
2026-04-22 02:54 28.35974 -110.14146 21476 ft 454 kts 319°
2026-04-22 02:54 28.38421 -110.16362 20424 ft 445 kts 319°
2026-04-22 02:54 28.40824 -110.18532 19363 ft 438 kts 319°
2026-04-22 02:55 28.43197 -110.20676 18307 ft 432 kts 319°
2026-04-22 02:55 28.45525 -110.22785 17269 ft 425 kts 319°
2026-04-22 02:55 28.47820 -110.24870 16292 ft 420 kts 319°
2026-04-22 02:55 28.50094 -110.26938 15657 ft 417 kts 319°
2026-04-22 02:56 28.52360 -110.28998 15363 ft 416 kts 319°
2026-04-22 02:56 28.54613 -110.31046 15114 ft 414 kts 319°
2026-04-22 02:56 28.56859 -110.33088 14865 ft 413 kts 319°
2026-04-22 02:56 28.59075 -110.35103 14694 ft 412 kts 319°
2026-04-22 02:57 28.61309 -110.37133 14170 ft 410 kts 319°
2026-04-22 02:57 28.63513 -110.39140 13428 ft 401 kts 319°
2026-04-22 02:57 28.65661 -110.41102 12732 ft 390 kts 319°
2026-04-22 02:57 28.67750 -110.43009 12022 ft 380 kts 319°
2026-04-22 02:58 28.69792 -110.44871 11334 ft 372 kts 319°
2026-04-22 02:58 28.71785 -110.46690 10779 ft 359 kts 319°
2026-04-22 02:58 28.73677 -110.48417 10553 ft 337 kts 319°
2026-04-22 02:58 28.75433 -110.50019 10424 ft 317 kts 319°
2026-04-22 02:59 28.77099 -110.51542 10295 ft 298 kts 319°
2026-04-22 02:59 28.78679 -110.52987 10167 ft 282 kts 319°
2026-04-22 02:59 28.80165 -110.54351 9986 ft 270 kts 319°
2026-04-22 02:59 28.81621 -110.55691 9487 ft 270 kts 320°
2026-04-22 03:00 28.83101 -110.57049 8842 ft 275 kts 320°
2026-04-22 03:00 28.84590 -110.58412 8326 ft 274 kts 321°
2026-04-22 03:00 28.86074 -110.59768 7817 ft 273 kts 321°
2026-04-22 03:00 28.87551 -110.61122 7303 ft 272 kts 321°
2026-04-22 03:01 28.89017 -110.62466 6902 ft 267 kts 321°
2026-04-22 03:01 28.90427 -110.63763 6710 ft 254 kts 321°
2026-04-22 03:01 28.91773 -110.65000 6368 ft 249 kts 321°
2026-04-22 03:01 28.93130 -110.66247 5931 ft 248 kts 321°
2026-04-22 03:02 28.94473 -110.67475 5483 ft 248 kts 321°
2026-04-22 03:02 28.95820 -110.68710 5029 ft 247 kts 321°
2026-04-22 03:02 28.97162 -110.69946 4574 ft 247 kts 321°
2026-04-22 03:02 28.98499 -110.71175 4151 ft 247 kts 321°
2026-04-22 03:03 28.99840 -110.72408 4005 ft 247 kts 321°
2026-04-22 03:03 29.01182 -110.73643 4001 ft 247 kts 321°
2026-04-22 03:03 29.02509 -110.74864 3999 ft 247 kts 321°
2026-04-22 03:03 29.03851 -110.76100 3998 ft 247 kts 321°
2026-04-22 03:04 29.05193 -110.77335 3998 ft 247 kts 321°
2026-04-22 03:04 29.06523 -110.78561 3992 ft 240 kts 321°
2026-04-22 03:04 29.07791 -110.79731 3990 ft 229 kts 321°
2026-04-22 03:04 29.09017 -110.80858 3994 ft 226 kts 321°
2026-04-22 03:05 29.10240 -110.81986 4005 ft 225 kts 321°
2026-04-22 03:05 29.11455 -110.83076 4003 ft 217 kts 324°
2026-04-22 03:05 29.12721 -110.84005 4001 ft 215 kts 329°
2026-04-22 03:05 29.14007 -110.84854 4000 ft 215 kts 330°
2026-04-22 03:06 29.15300 -110.85716 3989 ft 214 kts 329°
2026-04-22 03:06 29.16531 -110.86650 3746 ft 212 kts 320°
2026-04-22 03:06 29.17384 -110.88009 3429 ft 210 kts 290°
2026-04-22 03:06 29.17486 -110.89612 3308 ft 197 kts 260°
2026-04-22 03:07 29.16991 -110.91011 3163 ft 187 kts 239°
2026-04-22 03:07 29.16278 -110.92248 2911 ft 185 kts 236°
2026-04-22 03:07 29.15580 -110.93477 2829 ft 183 kts 238°
2026-04-22 03:07 29.14943 -110.94680 2797 ft 165 kts 239°
2026-04-22 03:08 29.14380 -110.95763 2465 ft 156 kts 239°
2026-04-22 03:08 29.13824 -110.96805 2078 ft 156 kts 238°
2026-04-22 03:08 29.13259 -110.97865 2002 ft 157 kts 239°
2026-04-22 03:08 29.12665 -110.98936 1778 ft 157 kts 239°
2026-04-22 03:09 29.12109 -110.99995 1499 ft 154 kts 241°
2026-04-22 03:09 29.11571 -111.01062 1264 ft 155 kts 239°
2026-04-22 03:09 29.11002 -111.02105 1030 ft 154 kts 238°
2026-04-22 03:09 29.10454 -111.03154 884 ft 153 kts 239°
2026-04-22 03:10 29.09888 -111.04201 698 ft 154 kts 238°
2026-04-22 03:10 29.09355 -111.05213 641 ft 132 kts 238°
2026-04-22 03:10 29.09155 -111.05585 641 ft 15 kts 240°
2026-04-22 03:10 29.09113 -111.05659 641 ft 10 kts 220°
2026-04-22 03:11 29.09082 -111.05622 641 ft 9 kts 87°
2026-04-22 03:11 29.09086 -111.05541 641 ft 11 kts 87°
2026-04-22 03:11 29.09088 -111.05474 641 ft 8 kts 88°
2026-04-22 03:11 29.09090 -111.05411 641 ft 7 kts 88°
2026-04-22 03:12 29.09090 -111.05389 641 ft 3 kts 88°
2026-04-22 03:12 29.09131 -111.05278 641 ft 8 kts 58°
2026-04-22 03:12 29.09126 -111.05239 641 ft 6 kts 148°
2026-04-22 03:13 29.09104 -111.05224 641 ft 2 kts 148°
2026-04-22 03:13 29.09082 -111.05208 641 ft 3 kts 148°
2026-04-22 03:13 29.09072 -111.05201 641 ft 0 kts 148°